Location: Gadern
(49.5873°N, 8.8138°E)
Time: 10:25:47
(UTC+00:00)

Cosmos 1766 Rocket - Pass Details

Date: 19 May 2025
Orbit: 598 x 627 km, 82.5° (Epoch: 23 June)

Event Time Altitude Azimuth Distance (km) Brightness Sun altitude
Rises 21:53:58 0° 348° (NNW) 2,909 8.7 -17.8°
Reaches altitude 10° 21:56:13 10° 346° (NNW) 1,994 7.4 -17.9°
Maximum altitude 22:00:36 70° 264° (W) 658 3.7 -18.2°
Enters shadow 22:02:18 36° 190° (S) 980 4.1 -18.3°
